Year,Month,Day,Hour,Minute,Value (Times are PST for temperature in C)
2017,09,19,00,00,10.10
2017,09,19,00,01,10.00
2017,09,19,00,02,10.00
2017,09,19,00,03,10.00
2017,09,19,00,04,10.00
2017,09,19,00,05,10.00
2017,09,19,00,06,9.90
2017,09,19,00,07,9.90
2017,09,19,00,08,9.90
2017,09,19,00,09,9.90
2017,09,19,00,10,9.90
2017,09,19,00,11,9.90
2017,09,19,00,12,9.90
2017,09,19,00,13,9.90
2017,09,19,00,14,9.90
2017,09,19,00,15,9.90
2017,09,19,00,16,9.90
2017,09,19,00,17,9.90
2017,09,19,00,18,9.90
2017,09,19,00,19,9.90
2017,09,19,00,20,9.90
2017,09,19,00,21,9.80
2017,09,19,00,22,9.80
2017,09,19,00,23,9.80
2017,09,19,00,24,9.80
2017,09,19,00,25,9.80
2017,09,19,00,26,9.80
2017,09,19,00,27,9.80
2017,09,19,00,28,9.80
2017,09,19,00,29,9.80
2017,09,19,00,30,9.80
2017,09,19,00,31,9.80
2017,09,19,00,32,9.80
2017,09,19,00,33,9.80
2017,09,19,00,34,9.80
2017,09,19,00,35,9.80
2017,09,19,00,36,9.80
2017,09,19,00,37,9.80
2017,09,19,00,38,9.80
2017,09,19,00,39,9.80
2017,09,19,00,40,9.80
2017,09,19,00,41,9.80
2017,09,19,00,42,9.80
2017,09,19,00,43,9.80
2017,09,19,00,44,9.80
2017,09,19,00,45,9.80
2017,09,19,00,46,9.80
2017,09,19,00,47,9.80
2017,09,19,00,48,9.80
2017,09,19,00,49,9.80
2017,09,19,00,50,9.80
2017,09,19,00,51,9.70
2017,09,19,00,52,9.70
2017,09,19,00,53,9.70
2017,09,19,00,54,9.70
2017,09,19,00,55,9.70
2017,09,19,00,56,9.70
2017,09,19,00,57,9.70
2017,09,19,00,58,9.70
2017,09,19,00,59,9.70
2017,09,19,01,00,9.70
2017,09,19,01,01,9.70
2017,09,19,01,02,9.70
2017,09,19,01,03,9.70
2017,09,19,01,04,9.70
2017,09,19,01,05,9.70
2017,09,19,01,06,9.70
2017,09,19,01,07,9.70
2017,09,19,01,08,9.70
2017,09,19,01,09,9.70
2017,09,19,01,10,9.70
2017,09,19,01,11,9.70
2017,09,19,01,12,9.70
2017,09,19,01,13,9.70
2017,09,19,01,14,9.70
2017,09,19,01,15,9.70
2017,09,19,01,16,9.70
2017,09,19,01,17,9.70
2017,09,19,01,18,9.70
2017,09,19,01,19,9.70
2017,09,19,01,20,9.70
2017,09,19,01,21,9.70
2017,09,19,01,22,9.70
2017,09,19,01,23,9.70
2017,09,19,01,24,9.70
2017,09,19,01,25,9.70
2017,09,19,01,26,9.70
2017,09,19,01,27,9.70
2017,09,19,01,28,9.70
2017,09,19,01,29,9.60
2017,09,19,01,30,9.70
2017,09,19,01,31,9.60
2017,09,19,01,32,9.60
2017,09,19,01,33,9.60
2017,09,19,01,34,9.60
2017,09,19,01,35,9.60
2017,09,19,01,36,9.60
2017,09,19,01,37,9.60
2017,09,19,01,38,9.60
2017,09,19,01,39,9.60
2017,09,19,01,40,9.60
2017,09,19,01,41,9.60
2017,09,19,01,42,9.60
2017,09,19,01,43,9.60
2017,09,19,01,44,9.60
2017,09,19,01,45,9.60
2017,09,19,01,46,9.60
2017,09,19,01,47,9.60
2017,09,19,01,48,9.60
2017,09,19,01,49,9.60
2017,09,19,01,50,9.60
2017,09,19,01,51,9.60
2017,09,19,01,52,9.60
2017,09,19,01,53,9.60
2017,09,19,01,54,9.60
2017,09,19,01,55,9.60
2017,09,19,01,56,9.60
2017,09,19,01,57,9.60
2017,09,19,01,58,9.60
2017,09,19,01,59,9.60
2017,09,19,02,00,9.50
2017,09,19,02,01,9.50
2017,09,19,02,02,9.50
2017,09,19,02,03,9.50
2017,09,19,02,04,9.50
2017,09,19,02,05,9.50
2017,09,19,02,06,9.50
2017,09,19,02,07,9.50
2017,09,19,02,08,9.50
2017,09,19,02,09,9.50
2017,09,19,02,10,9.50
2017,09,19,02,11,9.50
2017,09,19,02,12,9.50
2017,09,19,02,13,9.50
2017,09,19,02,14,9.50
2017,09,19,02,15,9.50
2017,09,19,02,16,9.60
2017,09,19,02,17,9.50
2017,09,19,02,18,9.50
2017,09,19,02,19,9.60
2017,09,19,02,20,9.50
2017,09,19,02,21,9.50
2017,09,19,02,22,9.50
2017,09,19,02,23,9.50
2017,09,19,02,24,9.50
2017,09,19,02,25,9.50
2017,09,19,02,26,9.50
2017,09,19,02,27,9.50
2017,09,19,02,28,9.50
2017,09,19,02,29,9.50
2017,09,19,02,30,9.50
2017,09,19,02,31,9.50
2017,09,19,02,32,9.50
2017,09,19,02,33,9.50
2017,09,19,02,34,9.40
2017,09,19,02,35,9.40
2017,09,19,02,36,9.40
2017,09,19,02,37,9.40
2017,09,19,02,38,9.40
2017,09,19,02,39,9.40
2017,09,19,02,40,9.40
2017,09,19,02,41,9.40
2017,09,19,02,42,9.40
2017,09,19,02,43,9.40
2017,09,19,02,44,9.40
2017,09,19,02,45,9.40
2017,09,19,02,46,9.40
2017,09,19,02,47,9.30
2017,09,19,02,48,9.30
2017,09,19,02,49,9.30
2017,09,19,02,50,9.30
2017,09,19,02,51,9.30
2017,09,19,02,52,9.30
2017,09,19,02,53,9.20
2017,09,19,02,54,9.20
2017,09,19,02,55,9.20
2017,09,19,02,56,9.20
2017,09,19,02,57,9.10
2017,09,19,02,58,9.10
2017,09,19,02,59,9.10
2017,09,19,03,00,9.10
2017,09,19,03,01,9.00
2017,09,19,03,02,9.00
2017,09,19,03,03,9.00
2017,09,19,03,04,8.90
2017,09,19,03,05,8.90
2017,09,19,03,06,8.90
2017,09,19,03,07,8.90
2017,09,19,03,08,8.90
2017,09,19,03,09,8.90
2017,09,19,03,10,8.90
2017,09,19,03,11,8.90
2017,09,19,03,12,8.90
2017,09,19,03,13,8.90
2017,09,19,03,14,8.90
2017,09,19,03,15,8.90
2017,09,19,03,16,8.80
2017,09,19,03,17,8.80
2017,09,19,03,18,8.80
2017,09,19,03,19,8.80
2017,09,19,03,20,8.80
2017,09,19,03,21,8.70
2017,09,19,03,22,8.70
2017,09,19,03,23,8.70
2017,09,19,03,24,8.70
2017,09,19,03,25,8.70
2017,09,19,03,26,8.70
2017,09,19,03,27,8.70
2017,09,19,03,28,8.70
2017,09,19,03,29,8.70
2017,09,19,03,30,8.70
2017,09,19,03,31,8.70
2017,09,19,03,32,8.70
2017,09,19,03,33,8.70
2017,09,19,03,34,8.70
2017,09,19,03,35,8.70
2017,09,19,03,36,8.70
2017,09,19,03,37,8.70
2017,09,19,03,38,8.70
2017,09,19,03,39,8.70
2017,09,19,03,40,8.70
2017,09,19,03,41,8.70
2017,09,19,03,42,8.70
2017,09,19,03,43,8.70
2017,09,19,03,44,8.70
2017,09,19,03,45,8.70
2017,09,19,03,46,8.70
2017,09,19,03,47,8.70
2017,09,19,03,48,8.70
2017,09,19,03,49,8.70
2017,09,19,03,50,8.70
2017,09,19,03,51,8.70
2017,09,19,03,52,8.70
2017,09,19,03,53,8.60
2017,09,19,03,54,8.60
2017,09,19,03,55,8.60
2017,09,19,03,56,8.60
2017,09,19,03,57,8.60
2017,09,19,03,58,8.60
2017,09,19,03,59,8.60
2017,09,19,04,00,8.60
2017,09,19,04,01,8.60
2017,09,19,04,02,8.60
2017,09,19,04,03,8.60
2017,09,19,04,04,8.70
2017,09,19,04,05,8.70
2017,09,19,04,06,8.70
2017,09,19,04,07,8.70
2017,09,19,04,08,8.70
2017,09,19,04,09,8.70
2017,09,19,04,10,8.70
2017,09,19,04,11,8.70
2017,09,19,04,12,8.70
2017,09,19,04,13,8.70
2017,09,19,04,14,8.70
2017,09,19,04,15,8.70
2017,09,19,04,16,8.70
2017,09,19,04,17,8.70
2017,09,19,04,18,8.70
2017,09,19,04,19,8.70
2017,09,19,04,20,8.70
2017,09,19,04,21,8.70
2017,09,19,04,22,8.70
2017,09,19,04,23,8.70
2017,09,19,04,24,8.70
2017,09,19,04,25,8.70
2017,09,19,04,26,8.70
2017,09,19,04,27,8.70
2017,09,19,04,28,8.70
2017,09,19,04,29,8.70
2017,09,19,04,30,8.70
2017,09,19,04,31,8.70
2017,09,19,04,32,8.70
2017,09,19,04,33,8.70
2017,09,19,04,34,8.70
2017,09,19,04,35,8.70
2017,09,19,04,36,8.70
2017,09,19,04,37,8.70
2017,09,19,04,38,8.70
2017,09,19,04,39,8.70
2017,09,19,04,40,8.70
2017,09,19,04,41,8.70
2017,09,19,04,42,8.70
2017,09,19,04,43,8.70
2017,09,19,04,44,8.70
2017,09,19,04,45,8.70
2017,09,19,04,46,8.70
2017,09,19,04,47,8.70
2017,09,19,04,48,8.70
2017,09,19,04,49,8.70
2017,09,19,04,50,8.70
2017,09,19,04,51,8.80
2017,09,19,04,52,8.80
2017,09,19,04,53,8.80
2017,09,19,04,54,8.80
2017,09,19,04,55,8.80
2017,09,19,04,56,8.80
2017,09,19,04,57,8.90
2017,09,19,04,58,8.90
2017,09,19,04,59,8.90
2017,09,19,05,00,8.90
2017,09,19,05,01,8.90
2017,09,19,05,02,8.90
2017,09,19,05,03,8.90
2017,09,19,05,04,8.90
2017,09,19,05,05,8.90
2017,09,19,05,06,8.90
2017,09,19,05,07,8.80
2017,09,19,05,08,8.80
2017,09,19,05,09,8.80
2017,09,19,05,10,8.80
2017,09,19,05,11,8.80
2017,09,19,05,12,8.80
2017,09,19,05,13,8.80
2017,09,19,05,14,8.80
2017,09,19,05,15,8.80
2017,09,19,05,16,8.80
2017,09,19,05,17,8.80
2017,09,19,05,18,8.80
2017,09,19,05,19,8.80
2017,09,19,05,20,8.80
2017,09,19,05,21,8.80
2017,09,19,05,22,8.80
2017,09,19,05,23,8.80
2017,09,19,05,24,8.80
2017,09,19,05,25,8.80
2017,09,19,05,26,8.80
2017,09,19,05,27,8.80
2017,09,19,05,28,8.80
2017,09,19,05,29,8.80
2017,09,19,05,30,8.80
2017,09,19,05,31,8.80
2017,09,19,05,32,8.80
2017,09,19,05,33,8.80
2017,09,19,05,34,8.80
2017,09,19,05,35,8.80
2017,09,19,05,36,8.80
2017,09,19,05,37,8.80
2017,09,19,05,38,8.80
2017,09,19,05,39,8.80
2017,09,19,05,40,8.80
2017,09,19,05,41,8.80
2017,09,19,05,42,8.80
2017,09,19,05,43,8.80
2017,09,19,05,44,8.80
2017,09,19,05,45,8.80
2017,09,19,05,46,8.80
2017,09,19,05,47,8.80
2017,09,19,05,48,8.80
2017,09,19,05,49,8.70
2017,09,19,05,50,8.80
2017,09,19,05,51,8.70
2017,09,19,05,52,8.70
2017,09,19,05,53,8.70
2017,09,19,05,54,8.70
2017,09,19,05,55,8.70
2017,09,19,05,56,8.70
2017,09,19,05,57,8.70
2017,09,19,05,58,8.70
2017,09,19,05,59,8.70
2017,09,19,06,00,8.70
2017,09,19,06,01,8.70
2017,09,19,06,02,8.70
2017,09,19,06,03,8.70
2017,09,19,06,04,8.70
2017,09,19,06,05,8.70
2017,09,19,06,06,8.70
2017,09,19,06,07,8.70
2017,09,19,06,08,8.70
2017,09,19,06,09,8.70
2017,09,19,06,10,8.70
2017,09,19,06,11,8.70
2017,09,19,06,12,8.70
2017,09,19,06,13,8.70
2017,09,19,06,14,8.70
2017,09,19,06,15,8.70
2017,09,19,06,16,8.70
2017,09,19,06,17,8.70
2017,09,19,06,18,8.70
2017,09,19,06,19,8.70
2017,09,19,06,20,8.70
2017,09,19,06,21,8.70
2017,09,19,06,22,8.70
2017,09,19,06,23,8.70
2017,09,19,06,24,8.70
2017,09,19,06,25,8.70
2017,09,19,06,26,8.70
2017,09,19,06,27,8.70
2017,09,19,06,28,8.70
2017,09,19,06,29,8.70
2017,09,19,06,30,8.70
2017,09,19,06,31,8.70
2017,09,19,06,32,8.70
2017,09,19,06,33,8.70
2017,09,19,06,34,8.70
2017,09,19,06,35,8.60
2017,09,19,06,36,8.70
2017,09,19,06,37,8.70
2017,09,19,06,38,8.60
2017,09,19,06,39,8.60
2017,09,19,06,40,8.70
2017,09,19,06,41,8.60
2017,09,19,06,42,8.60
2017,09,19,06,43,8.60
2017,09,19,06,44,8.60
2017,09,19,06,45,8.60
2017,09,19,06,46,8.60
2017,09,19,06,47,8.60
2017,09,19,06,48,8.60
2017,09,19,06,49,8.60
2017,09,19,06,50,8.60
2017,09,19,06,51,8.60
2017,09,19,06,52,8.60
2017,09,19,06,53,8.60
2017,09,19,06,54,8.70
2017,09,19,06,55,8.70
2017,09,19,06,56,8.70
2017,09,19,06,57,8.70
2017,09,19,06,58,8.70
2017,09,19,06,59,8.70
2017,09,19,07,00,8.70
2017,09,19,07,01,8.70
2017,09,19,07,02,8.70
2017,09,19,07,03,8.70
2017,09,19,07,04,8.70
2017,09,19,07,05,8.70
2017,09,19,07,06,8.70
2017,09,19,07,07,8.70
2017,09,19,07,08,8.70
2017,09,19,07,09,8.70
2017,09,19,07,10,8.70
2017,09,19,07,11,8.70
2017,09,19,07,12,8.70
2017,09,19,07,13,8.70
2017,09,19,07,14,8.70
2017,09,19,07,15,8.70
2017,09,19,07,16,8.70
2017,09,19,07,17,8.70
2017,09,19,07,18,8.70
2017,09,19,07,19,8.70
2017,09,19,07,20,8.70
2017,09,19,07,21,8.70
2017,09,19,07,22,8.70
2017,09,19,07,23,8.70
2017,09,19,07,24,8.70
2017,09,19,07,25,8.70
2017,09,19,07,26,8.70
2017,09,19,07,27,8.70
2017,09,19,07,28,8.70
2017,09,19,07,29,8.70
2017,09,19,07,30,8.70
2017,09,19,07,31,8.70
2017,09,19,07,32,8.70
2017,09,19,07,33,8.70
2017,09,19,07,34,8.70
2017,09,19,07,35,8.70
2017,09,19,07,36,8.70
2017,09,19,07,37,8.70
2017,09,19,07,38,8.70
2017,09,19,07,39,8.70
2017,09,19,07,40,8.70
2017,09,19,07,41,8.70
2017,09,19,07,42,8.70
2017,09,19,07,43,8.70
2017,09,19,07,44,8.70
2017,09,19,07,45,8.70
2017,09,19,07,46,8.70
2017,09,19,07,47,8.70
2017,09,19,07,48,8.70
2017,09,19,07,49,8.70
2017,09,19,07,50,8.70
2017,09,19,07,51,8.70
2017,09,19,07,52,8.70
2017,09,19,07,53,8.70
2017,09,19,07,54,8.70
2017,09,19,07,55,8.70
2017,09,19,07,56,8.70
2017,09,19,07,57,8.70
2017,09,19,07,58,8.80
2017,09,19,07,59,8.80
2017,09,19,08,00,8.80
2017,09,19,08,01,8.80
2017,09,19,08,02,8.80
2017,09,19,08,03,8.70
2017,09,19,08,04,8.70
2017,09,19,08,05,8.70
2017,09,19,08,06,8.70
2017,09,19,08,07,8.70
2017,09,19,08,08,8.70
2017,09,19,08,09,8.70
2017,09,19,08,10,8.80
2017,09,19,08,11,8.80
2017,09,19,08,12,8.80
2017,09,19,08,13,8.80
2017,09,19,08,14,8.80
2017,09,19,08,15,8.80
2017,09,19,08,16,8.80
2017,09,19,08,17,8.80
2017,09,19,08,18,8.80
2017,09,19,08,19,8.80
2017,09,19,08,20,8.80
2017,09,19,08,21,8.80
2017,09,19,08,22,8.90
2017,09,19,08,23,8.90
2017,09,19,08,24,8.90
2017,09,19,08,25,8.90
2017,09,19,08,26,8.90
2017,09,19,08,27,9.00
2017,09,19,08,28,9.00
2017,09,19,08,29,9.00
2017,09,19,08,30,9.00
2017,09,19,08,31,9.00
2017,09,19,08,32,9.00
2017,09,19,08,33,9.00
2017,09,19,08,34,9.10
2017,09,19,08,35,9.10
2017,09,19,08,36,9.10
2017,09,19,08,37,9.10
2017,09,19,08,38,9.10
2017,09,19,08,39,9.10
2017,09,19,08,40,9.10
2017,09,19,08,41,9.10
2017,09,19,08,42,9.20
2017,09,19,08,43,9.20
2017,09,19,08,44,9.20
2017,09,19,08,45,9.20
2017,09,19,08,46,9.20
2017,09,19,08,47,9.20
2017,09,19,08,48,9.30
2017,09,19,08,49,9.30
2017,09,19,08,50,9.30
2017,09,19,08,51,9.30
2017,09,19,08,52,9.30
2017,09,19,08,53,9.30
2017,09,19,08,54,9.30
2017,09,19,08,55,9.30
2017,09,19,08,56,9.30
2017,09,19,08,57,9.30
2017,09,19,08,58,9.30
2017,09,19,08,59,9.30
2017,09,19,09,00,9.30
2017,09,19,09,01,9.30
2017,09,19,09,02,9.30
2017,09,19,09,03,9.40
2017,09,19,09,04,9.40
2017,09,19,09,05,9.40
2017,09,19,09,06,9.40
2017,09,19,09,07,9.40
2017,09,19,09,08,9.40
2017,09,19,09,09,9.40
2017,09,19,09,10,9.40
2017,09,19,09,11,9.40
2017,09,19,09,12,9.40
2017,09,19,09,13,9.40
2017,09,19,09,14,9.50
2017,09,19,09,15,9.50
2017,09,19,09,16,9.50
2017,09,19,09,17,9.50
2017,09,19,09,18,9.60
2017,09,19,09,19,9.60
2017,09,19,09,20,9.60
2017,09,19,09,21,9.60
2017,09,19,09,22,9.60
2017,09,19,09,23,9.60
2017,09,19,09,24,9.60
2017,09,19,09,25,9.60
2017,09,19,09,26,9.70
2017,09,19,09,27,9.60
2017,09,19,09,28,9.70
2017,09,19,09,29,9.70
2017,09,19,09,30,9.70
2017,09,19,09,31,9.70
2017,09,19,09,32,9.80
2017,09,19,09,33,9.80
2017,09,19,09,34,9.80
2017,09,19,09,35,9.90
2017,09,19,09,36,9.90
2017,09,19,09,37,9.90
2017,09,19,09,38,9.90
2017,09,19,09,39,9.90
2017,09,19,09,40,9.90
2017,09,19,09,41,10.00
2017,09,19,09,42,10.00
2017,09,19,09,43,10.00
2017,09,19,09,44,10.00
2017,09,19,09,45,10.00
2017,09,19,09,46,10.00
2017,09,19,09,47,10.00
2017,09,19,09,48,9.90
2017,09,19,09,49,10.00
2017,09,19,09,50,10.00
2017,09,19,09,51,9.90
2017,09,19,09,52,10.00
2017,09,19,09,53,10.00
2017,09,19,09,54,10.00
2017,09,19,09,55,10.10
2017,09,19,09,56,10.10
2017,09,19,09,57,10.10
2017,09,19,09,58,10.10
2017,09,19,09,59,10.20
2017,09,19,10,00,10.20
2017,09,19,10,01,10.10
2017,09,19,10,02,10.10
2017,09,19,10,03,10.10
2017,09,19,10,04,10.10
2017,09,19,10,05,10.10
2017,09,19,10,06,10.10
2017,09,19,10,07,10.10
2017,09,19,10,08,10.10
2017,09,19,10,09,10.10
2017,09,19,10,10,10.20
2017,09,19,10,11,10.20
2017,09,19,10,12,10.20
2017,09,19,10,13,10.20
2017,09,19,10,14,10.20
2017,09,19,10,15,10.20
2017,09,19,10,16,10.20
2017,09,19,10,17,10.20
2017,09,19,10,18,10.20
2017,09,19,10,19,10.20
2017,09,19,10,20,10.20
2017,09,19,10,21,10.20
2017,09,19,10,22,10.30
2017,09,19,10,23,10.30
2017,09,19,10,24,10.30
2017,09,19,10,25,10.30
2017,09,19,10,26,10.30
2017,09,19,10,27,10.40
2017,09,19,10,28,10.40
2017,09,19,10,29,10.40
2017,09,19,10,30,10.40
2017,09,19,10,31,10.40
2017,09,19,10,32,10.40
2017,09,19,10,33,10.40
2017,09,19,10,34,10.30
2017,09,19,10,35,10.30
2017,09,19,10,36,10.20
2017,09,19,10,37,10.20
2017,09,19,10,38,10.20
2017,09,19,10,39,10.20
2017,09,19,10,40,10.10
2017,09,19,10,41,10.10
2017,09,19,10,42,10.10
2017,09,19,10,43,10.10
2017,09,19,10,44,10.10
2017,09,19,10,45,10.10
2017,09,19,10,46,10.10
2017,09,19,10,47,10.10
2017,09,19,10,48,10.10
2017,09,19,10,49,10.10
2017,09,19,10,50,10.20
2017,09,19,10,51,10.20
2017,09,19,10,52,10.20
2017,09,19,10,53,10.20
2017,09,19,10,54,10.30
2017,09,19,10,55,10.30
2017,09,19,10,56,10.30
2017,09,19,10,57,10.30
2017,09,19,10,58,10.30
2017,09,19,10,59,10.40
2017,09,19,11,00,10.40
2017,09,19,11,01,10.40
2017,09,19,11,02,10.40
2017,09,19,11,03,10.40
2017,09,19,11,04,10.40
2017,09,19,11,05,10.40
2017,09,19,11,06,10.50
2017,09,19,11,07,10.50
2017,09,19,11,08,10.50
2017,09,19,11,09,10.50
2017,09,19,11,10,10.50
2017,09,19,11,11,10.50
2017,09,19,11,12,10.50
2017,09,19,11,13,10.50
2017,09,19,11,14,10.50
2017,09,19,11,15,10.50
2017,09,19,11,16,10.60
2017,09,19,11,17,10.60
2017,09,19,11,18,10.60
2017,09,19,11,19,10.60
2017,09,19,11,20,10.60
2017,09,19,11,21,10.60
2017,09,19,11,22,10.60
2017,09,19,11,23,10.70
2017,09,19,11,24,10.70
2017,09,19,11,25,10.70
2017,09,19,11,26,10.70
2017,09,19,11,27,10.70
2017,09,19,11,28,10.70
2017,09,19,11,29,10.70
2017,09,19,11,30,10.70
2017,09,19,11,31,10.70
2017,09,19,11,32,10.70
2017,09,19,11,33,10.70
2017,09,19,11,34,10.70
2017,09,19,11,35,10.70
2017,09,19,11,36,10.70
2017,09,19,11,37,10.70
2017,09,19,11,38,10.70
2017,09,19,11,39,10.70
2017,09,19,11,40,10.70
2017,09,19,11,41,10.70
2017,09,19,11,42,10.70
2017,09,19,11,43,10.70
2017,09,19,11,44,10.70
2017,09,19,11,45,10.70
2017,09,19,11,46,10.70
2017,09,19,11,47,10.70
2017,09,19,11,48,10.60
2017,09,19,11,49,10.60
2017,09,19,11,50,10.60
2017,09,19,11,51,10.60
2017,09,19,11,52,10.60
2017,09,19,11,53,10.60
2017,09,19,11,54,10.60
2017,09,19,11,55,10.60
2017,09,19,11,56,10.60
2017,09,19,11,57,10.70
2017,09,19,11,58,10.70
2017,09,19,11,59,10.70
2017,09,19,12,00,10.80
2017,09,19,12,01,10.80
2017,09,19,12,02,10.80
2017,09,19,12,03,10.80
2017,09,19,12,04,10.80
2017,09,19,12,05,10.80
2017,09,19,12,06,10.80
2017,09,19,12,07,10.80
2017,09,19,12,08,10.80
2017,09,19,12,09,10.80
2017,09,19,12,10,10.80
2017,09,19,12,11,10.80
2017,09,19,12,12,10.80
2017,09,19,12,13,10.80
2017,09,19,12,14,10.80
2017,09,19,12,15,10.80
2017,09,19,12,16,10.90
2017,09,19,12,17,10.90
2017,09,19,12,18,10.90
2017,09,19,12,19,10.90
2017,09,19,12,20,11.00
2017,09,19,12,21,11.10
2017,09,19,12,22,11.10
2017,09,19,12,23,11.10
2017,09,19,12,24,11.10
2017,09,19,12,25,11.10
2017,09,19,12,26,11.10
2017,09,19,12,27,11.10
2017,09,19,12,28,11.20
2017,09,19,12,29,11.20
2017,09,19,12,30,11.30
2017,09,19,12,31,11.30
2017,09,19,12,32,11.30
2017,09,19,12,33,11.30
2017,09,19,12,34,11.40
2017,09,19,12,35,11.40
2017,09,19,12,36,11.40
2017,09,19,12,37,11.40
2017,09,19,12,38,11.40
2017,09,19,12,39,11.50
2017,09,19,12,40,11.50
2017,09,19,12,41,11.50
2017,09,19,12,42,11.50
2017,09,19,12,43,11.50
2017,09,19,12,44,11.50
2017,09,19,12,45,11.60
2017,09,19,12,46,11.60
2017,09,19,12,47,11.60
2017,09,19,12,48,11.60
2017,09,19,12,49,11.60
2017,09,19,12,50,11.60
2017,09,19,12,51,11.60
2017,09,19,12,52,11.60
2017,09,19,12,53,11.60
2017,09,19,12,54,11.60
2017,09,19,12,55,11.60
2017,09,19,12,56,11.70
2017,09,19,12,57,11.70
2017,09,19,12,58,11.70
2017,09,19,12,59,11.70
2017,09,19,13,00,11.70
2017,09,19,13,01,11.70
2017,09,19,13,02,11.70
2017,09,19,13,03,11.60
2017,09,19,13,04,11.60
2017,09,19,13,05,11.70
2017,09,19,13,06,11.70
2017,09,19,13,07,11.70
2017,09,19,13,08,11.70
2017,09,19,13,09,11.70
2017,09,19,13,10,11.60
2017,09,19,13,11,11.60
2017,09,19,13,12,11.60
2017,09,19,13,13,11.60
2017,09,19,13,14,11.60
2017,09,19,13,15,11.60
2017,09,19,13,16,11.60
2017,09,19,13,17,11.60
2017,09,19,13,18,11.60
2017,09,19,13,19,11.60
2017,09,19,13,20,11.60
2017,09,19,13,21,11.60
2017,09,19,13,22,11.60
2017,09,19,13,23,11.60
2017,09,19,13,24,11.60
2017,09,19,13,25,11.60
2017,09,19,13,26,11.60
2017,09,19,13,27,11.70
2017,09,19,13,28,11.70
2017,09,19,13,29,11.70
2017,09,19,13,30,11.70
2017,09,19,13,31,11.70
2017,09,19,13,32,11.80
2017,09,19,13,33,11.80
2017,09,19,13,34,11.80
2017,09,19,13,35,11.80
2017,09,19,13,36,11.90
2017,09,19,13,37,11.80
2017,09,19,13,38,11.80
2017,09,19,13,39,11.80
2017,09,19,13,40,11.80
2017,09,19,13,41,11.80
2017,09,19,13,42,11.80
2017,09,19,13,43,11.80
2017,09,19,13,44,11.80
2017,09,19,13,45,11.80
2017,09,19,13,46,11.80
2017,09,19,13,47,11.80
2017,09,19,13,48,11.80
2017,09,19,13,49,11.80
2017,09,19,13,50,11.80
2017,09,19,13,51,11.80
2017,09,19,13,52,11.80
2017,09,19,13,53,11.80
2017,09,19,13,54,11.80
2017,09,19,13,55,11.80
2017,09,19,13,56,11.80
2017,09,19,13,57,11.80
2017,09,19,13,58,11.90
2017,09,19,13,59,11.90
2017,09,19,14,00,11.90
2017,09,19,14,01,11.90
2017,09,19,14,02,11.90
2017,09,19,14,03,11.90
2017,09,19,14,04,11.90
2017,09,19,14,05,11.90
2017,09,19,14,06,11.90
2017,09,19,14,07,11.90
2017,09,19,14,08,11.90
2017,09,19,14,09,11.90
2017,09,19,14,10,11.90
2017,09,19,14,11,12.00
2017,09,19,14,12,12.00
2017,09,19,14,13,12.00
2017,09,19,14,14,11.90
2017,09,19,14,15,12.00
2017,09,19,14,16,12.00
2017,09,19,14,17,12.00
2017,09,19,14,18,12.00
2017,09,19,14,19,12.00
2017,09,19,14,20,12.00
2017,09,19,14,21,12.00
2017,09,19,14,22,12.00
2017,09,19,14,23,12.00
2017,09,19,14,24,12.00
2017,09,19,14,25,12.00
2017,09,19,14,26,12.10
2017,09,19,14,27,12.10
2017,09,19,14,28,12.20
2017,09,19,14,29,12.20
2017,09,19,14,30,12.20
2017,09,19,14,31,12.20
2017,09,19,14,32,12.20
2017,09,19,14,33,12.20
2017,09,19,14,34,12.30
2017,09,19,14,35,12.30
2017,09,19,14,36,12.30
2017,09,19,14,37,12.30
2017,09,19,14,38,12.30
2017,09,19,14,39,12.20
2017,09,19,14,40,12.20
2017,09,19,14,41,12.30
2017,09,19,14,42,12.30
2017,09,19,14,43,12.30
2017,09,19,14,44,12.40
2017,09,19,14,45,12.50
2017,09,19,14,46,12.50
2017,09,19,14,47,12.60
2017,09,19,14,48,12.60
2017,09,19,14,49,12.60
2017,09,19,14,50,12.60
2017,09,19,14,51,12.60
2017,09,19,14,52,12.60
2017,09,19,14,53,12.50
2017,09,19,14,54,12.50
2017,09,19,14,55,12.50
2017,09,19,14,56,12.50
2017,09,19,14,57,12.50
2017,09,19,14,58,12.50
2017,09,19,14,59,12.50
2017,09,19,15,00,12.50
2017,09,19,15,01,12.60
2017,09,19,15,02,12.60
2017,09,19,15,03,12.60
2017,09,19,15,04,12.60
2017,09,19,15,05,12.60
2017,09,19,15,06,12.60
2017,09,19,15,07,12.60
2017,09,19,15,08,12.60
2017,09,19,15,09,12.60
2017,09,19,15,10,12.70
2017,09,19,15,11,12.70
2017,09,19,15,12,12.70
2017,09,19,15,13,12.70
2017,09,19,15,14,12.70
2017,09,19,15,15,12.70
2017,09,19,15,16,12.70
2017,09,19,15,17,12.70
2017,09,19,15,18,12.70
2017,09,19,15,19,12.80
2017,09,19,15,20,12.80
2017,09,19,15,21,12.80
2017,09,19,15,22,12.80
2017,09,19,15,23,12.90
2017,09,19,15,24,12.90
2017,09,19,15,25,12.90
2017,09,19,15,26,13.00
2017,09,19,15,27,13.00
2017,09,19,15,28,13.00
2017,09,19,15,29,13.10
2017,09,19,15,30,13.10
2017,09,19,15,31,13.20
2017,09,19,15,32,13.30
2017,09,19,15,33,13.30
2017,09,19,15,34,13.40
2017,09,19,15,35,13.40
2017,09,19,15,36,13.40
2017,09,19,15,37,13.50
2017,09,19,15,38,13.50
2017,09,19,15,39,13.60
2017,09,19,15,40,13.60
2017,09,19,15,41,13.70
2017,09,19,15,42,13.70
2017,09,19,15,43,13.70
2017,09,19,15,44,13.70
2017,09,19,15,45,13.70
2017,09,19,15,46,13.70
2017,09,19,15,47,13.70
2017,09,19,15,48,13.70
2017,09,19,15,49,13.60
2017,09,19,15,50,13.60
2017,09,19,15,51,13.60
2017,09,19,15,52,13.60
2017,09,19,15,53,13.60
2017,09,19,15,54,13.60
2017,09,19,15,55,13.60
2017,09,19,15,56,13.60
2017,09,19,15,57,13.60
2017,09,19,15,58,13.50
2017,09,19,15,59,13.50
2017,09,19,16,00,13.40
2017,09,19,16,01,13.40
2017,09,19,16,02,13.40
2017,09,19,16,03,13.40
2017,09,19,16,04,13.40
2017,09,19,16,05,13.50
2017,09,19,16,06,13.50
2017,09,19,16,07,13.60
2017,09,19,16,08,13.70
2017,09,19,16,09,13.70
2017,09,19,16,10,13.80
2017,09,19,16,11,13.90
2017,09,19,16,12,13.90
2017,09,19,16,13,13.90
2017,09,19,16,14,14.00
2017,09,19,16,15,14.00
2017,09,19,16,16,14.00
2017,09,19,16,17,14.00
2017,09,19,16,18,14.00
2017,09,19,16,19,14.00
2017,09,19,16,20,13.90
2017,09,19,16,21,13.90
2017,09,19,16,22,13.80
2017,09,19,16,23,13.70
2017,09,19,16,24,13.70
2017,09,19,16,25,13.60
2017,09,19,16,26,13.60
2017,09,19,16,27,13.50
2017,09,19,16,28,13.40
2017,09,19,16,29,13.40
2017,09,19,16,30,13.30
2017,09,19,16,31,13.30
2017,09,19,16,32,13.20
2017,09,19,16,33,13.20
2017,09,19,16,34,13.10
2017,09,19,16,35,13.10
2017,09,19,16,36,13.10
2017,09,19,16,37,13.10
2017,09,19,16,38,13.10
2017,09,19,16,39,13.10
2017,09,19,16,40,13.10
2017,09,19,16,41,13.10
2017,09,19,16,42,13.00
2017,09,19,16,43,13.00
2017,09,19,16,44,13.00
2017,09,19,16,45,12.90
2017,09,19,16,46,12.90
2017,09,19,16,47,12.90
2017,09,19,16,48,12.80
2017,09,19,16,49,12.80
2017,09,19,16,50,12.80
2017,09,19,16,51,12.80
2017,09,19,16,52,12.80
2017,09,19,16,53,12.80
2017,09,19,16,54,12.70
2017,09,19,16,55,12.70
2017,09,19,16,56,12.70
2017,09,19,16,57,12.70
2017,09,19,16,58,12.70
2017,09,19,16,59,12.70
2017,09,19,17,00,12.70
2017,09,19,17,01,12.70
2017,09,19,17,02,12.70
2017,09,19,17,03,12.60
2017,09,19,17,04,12.60
2017,09,19,17,05,12.60
2017,09,19,17,06,12.60
2017,09,19,17,07,12.60
2017,09,19,17,08,12.60
2017,09,19,17,09,12.50
2017,09,19,17,10,12.50
2017,09,19,17,11,12.50
2017,09,19,17,12,12.50
2017,09,19,17,13,12.50
2017,09,19,17,14,12.50
2017,09,19,17,15,12.50
2017,09,19,17,16,12.40
2017,09,19,17,17,12.40
2017,09,19,17,18,12.40
2017,09,19,17,19,12.40
2017,09,19,17,20,12.40
2017,09,19,17,21,12.40
2017,09,19,17,22,12.40
2017,09,19,17,23,12.40
2017,09,19,17,24,12.40
2017,09,19,17,25,12.40
2017,09,19,17,26,12.40
2017,09,19,17,27,12.40
2017,09,19,17,28,12.40
2017,09,19,17,29,12.40
2017,09,19,17,30,12.40
2017,09,19,17,31,12.40
2017,09,19,17,32,12.40
2017,09,19,17,33,12.40
2017,09,19,17,34,12.40
2017,09,19,17,35,12.40
2017,09,19,17,36,12.40
2017,09,19,17,37,12.40
2017,09,19,17,38,12.40
2017,09,19,17,39,12.40
2017,09,19,17,40,12.30
2017,09,19,17,41,12.30
2017,09,19,17,42,12.30
2017,09,19,17,43,12.30
2017,09,19,17,44,12.30